Погода Мыс Ванкерем

Погода Мыс Ванкерем : погода сейчас, прогноз погоды и архив. Всё, что Вы хотите узнать о погоде Мыс Ванкерем!

Поиск расширенной информации на нашем сайте:

Другие новости

Новости СМИ2

Главная страница сайта

Новости сайта

03.07.2017

Напоминаем, что на нашем специализированном сайте Метеоцентр.Азия вы можете получить высокодетализированные автоматические прогнозы погоды по пунктам России, СНГ и мира в авиационном формате (включающие направление и скорость ветра, видимость, явления погоды, количество и форму облачности, нижнюю и верхнюю границу облачности).


Погода Мыс Ванкерем - сегодня

Время (UTC), дата Ветер
(°,м/с) 
Видим.   Явления Облачность Т
(°С)
Тd
(°С)
f(%) Тe
(°С)
Pmin
(гПа)
dP
(гПа)
Po
(мм)
O2
(г/м3)
Тmin Tmax R s Состояние
почвы
18 19.11.17 360 (С) 7{11}  20000 м  позёмок{снег}  10/0 средняя 
[Ac und]
-3.2 -5.6 83 -8  1010.2  757  309  -3.9    мокрый или
старый снег
10-40% 
21 19.11.17 360 (С) 6{10}  20000 м  позёмок  10/5 600 м средняя, верхняя 
[Sc|Ac trans|Ci fib]
-2.7 -5.3 82 -7  1015.9  5.7  761  310           
00 20.11.17 340 (С) 6{10}  10 км  позёмок  10/9 300 м 
[Sc]
-2.4 -5 82 -6  1019.5  3.6  764  311           
03 20.11.17 340 (С) 7{11}  10 км  позёмок  10/10 300 м 
[Sc]
-2.9 -5.2 84 -7  1020.7  1.2  765  312           
06 20.11.17 330 (СЗ) 7{10}  10 км  позёмок  10/10 600 м 
[Sc]
-3.1 -5.5 83 -8  1022  1.3  766  313    -2       
09 20.11.17 270 (З) 3{09}  20000 м    10/10 600 м 
[Sc]
-3.7 -6.6 80 -6  1021.5  -0.5  766  313           
12 20.11.17 260 (З) 3{07}  20000 м    10/10 600 м 
[Sc]
-3.5 -6.3 81 -6  1018.6  -2.9  764  312           
15 20.11.17 250 (З) 3{08}  20000 м    10/10 600 м 
[Sc]
-3.9 -6.1 85 -6  1015.2  -3.4  761  312           
18 20.11.17 270 (З) 4{07}  10 км    10/10 600 м 
[Sc]
-3.4 -5.5 85 -6  1012.2  -3  759  310  -3.7      мокрый или
старый снег
10-40% 
21 20.11.17 210 (ЮЗ) 5{08}  10 км    10/6 600 м средняя, верхняя 
[Sc|Ac trans|Ci fib]
-4.2 -6.5 84 -8  1007.6  -4.6  755  310           
00 21.11.17 140 (ЮВ) 5{08}  20000 м    10/5 600 м средняя 
[Sc|Ac und]
-4.7 -7.5 81 -9  1003.6  -4  752  309           
03 21.11.17 130 (ЮВ) 7{11}  10 км  позёмок{снег}  10/10 600 м 
[Sc]
-4.5 -6.5 86 -9  996.6  -7  747  307           
06 21.11.17 120 (ЮВ) 12{19}  1000 м  метель{снег}  10/10 300 м 
[Ns]
-4 -4.9 93 -10  987.2  -9.4  740  303    -3.4  0.7     
09 21.11.17 120 (ЮВ) 12{18}  1000 м  метель{снег}  10/0 средняя 
[Ac und]
-4.4 -6 89 -11  979.2  -8  734  301           
12 21.11.17 120 (ЮВ) 12{17}  1000 м  метель{снег}  ?/?  
-4 -5.2 91 -10  971.9  -7.3  728  298           
15 21.11.17 110 (В) 11{16}  1000 м  метель  ?/?  
-3.7 -4.5 94 -10  967  -4.9  725  297           
18 21.11.17 100 (В) 11{16}  1000 м  метель  ?/?  
-4 -4.9 93 -10  965  -2  723  296  -4.4    10  сухой снег
50-90% 
21 21.11.17 320 (СЗ) 12{19}  1000 м  метель  10/10 600 м 
[Sc]
-3.5 -5.3 87 -10  971.6  6.6  728  298           
00 22.11.17 320 (СЗ) 13{19}  1000 м  метель  10/8 200 м средняя, верхняя 
[Sc|Ac trans|Ci fib]
-3.7 -5.5 87 -10  980.6  735  301           
03 22.11.17 320 (СЗ) 12{18}  2000 м  метель  10/0 
-3 -5 86 -9  987.9  7.3  740  302           
06 22.11.17 320 (СЗ) 13{19}  2000 м  метель  10/0 средняя 
[Ac und]
-3.9 -6.1 85 -11  991.6  3.7  743  304    -2.5  0.2     
09 22.11.17 270 (З) 12{17}  2000 м  метель  10/0 средняя 
[Ac und]
-4.5 -6 89 -11  995.9  4.3  746  306           
12 22.11.17 270 (З) 10{15}  10 км  позёмок  ясно 
-7 -9.9 80 -14  998.1  2.2  748  310           
15 22.11.17 270 (З) 10{13}  10 км  позёмок  ясно 
-7.9 -11 78 -15  1000.5  2.4  750  312           
18 22.11.17 270 (З) 9{14}  10 км  позёмок  ясно 
-8.7 -12 77 -15  1002.4  1.9  751  314  -9.3      12  сухой снег
50-90% 
Время (UTC), дата Ветер
(°,м/с) 
Видим.   Явления Облачность Т
(°С)
Тd
(°С)
f(%) Тe
(°С)
Pmin
(гПа)
dP
(гПа)
Po
(мм)
O2
(г/м3)
Тmin Tmax R s Состояние
почвы

Для получения пояснительной информации подведите курсор к названию столбца.

ПОГОДА Мыс Ванкерем - архив

Всё, что Вы хотите узнать о погоде Мыс Ванкерем - удобно и подробно!

Выберите нужную дату (начиная с 1 января 2015* года) и нажмите кнопку "Найти".
Будут отображены архивные сводки погоды по пункту Мыс Ванкерем, начиная с указанной даты.


Отображать данные в формате CSV (для использования в таблицах Excel)


Внимание! Наш архив погоды предназначен исключительно для личного некоммерческого использования в познавательных целях. Если Вам необходимы официальные справки о состоянии погоды (для производственных, юридических, коммерческих и т.п. целей), обращайтесь в органы Росгидромета.

*Примечание: данная дата относится к архиву по метеостанциям СССР (Россия, СНГ, Балтия).
Архив по метеостанциям Зарубежной Европы и Азии (кроме Китая) хранится 10 дней, по другим регионам земного шара (Китай, Африка, Америка, Австралия, Океания) - 1 день.

Мыс Ванкерем - район местоположения метеостанции


Название, широта, долгота, высота метеостанции:
Мыс Ванкерем 67.83°ш. -175.8°д. 5 м над ур. моря [Российская Федерация]

Дополнительная информация

В oтличие oт бoльшинства пoгoдных сайтoв мы публикуем пoдрoбную метеoинфoрмацию в детальнoм прoфессиoнальнoм фoрмате.

Характеристики температуры и влажнoсти вoздуха измеряются на высoте 2 м в тени вдали oт зданий и деревьев.
Скoрoсть ветра измеряется на высoте 10 м (на урoвне рoста челoвека скoрoсть ветра ниже в 1.5-2 раза). Если метеoстанция нахoдится в гoрoде или в лесу, тo скoрoсть ветра занижена на 2-4 м/с пo сравнению с oткрытым местoм. Скoрoсть ветра над акватoриями крупных рек и oзёр, а также на вершинах хoлмoв на 2-5 м/с выше, чем в oбычных услoвиях.
Атмoсфернoе давление в разных тoчках местнoсти мoжет значительнo oтличаться oт давления на метеoстанции, в зависимoсти oт услoвий рельефа (при пoдъёме на 10 м давление пoнижается примернo на 1 мм рт.ст.).